This is the latest recevied weather packets stored in our database for station/object XQ6AK-15. If no packets are shown the sender has not sent any weather packets the latest 10 day(s).
| Time | Temp. | Humidity | Pressure | Rain* | Wind** | Luminosity | Snow |
|---|---|---|---|---|---|---|---|
| 1788133975 | 43° F | 99% | 760 mmHg | 0 in | - | 0 W/m² | - |
| 1788133671 | 43° F | 99% | 760.2 mmHg | 0 in | - | 0 W/m² | - |
| 1788133367 | 43° F | 99% | 760.1 mmHg | 0 in | - | 0 W/m² | - |
| 1788133062 | 44° F | 99% | 760.1 mmHg | 0 in | - | 0 W/m² | - |
| 1788132758 | 44° F | 99% | 760 mmHg | 0 in | - | 0 W/m² | - |
| 1788132453 | 44° F | 99% | 760 mmHg | 0 in | - | 0 W/m² | - |
| 1788132149 | 44° F | 99% | 760.1 mmHg | 0 in | - | 0 W/m² | - |
| 1788131845 | 44° F | 99% | 760.1 mmHg | 0 in | - | 0 W/m² | - |
| 1788131544 | 44° F | 99% | 760 mmHg | 0 in | - | 0 W/m² | - |
| 1788131239 | 44° F | 99% | 759.8 mmHg | 0 in | - | 0 W/m² | - |
| 1788130934 | 44° F | 99% | 759.8 mmHg | 0 in | - | 0 W/m² | - |
| 1788130629 | 44° F | 99% | 759.8 mmHg | 0 in | - | 0 W/m² | - |
| 1788130324 | 44° F | 99% | 759.8 mmHg | 0 in | - | 0 W/m² | - |
| 1788130023 | 44° F | 99% | 759.7 mmHg | 0 in | - | 0 W/m² | - |
| 1788129719 | 44° F | 99% | 759.6 mmHg | 0 in | - | 0 W/m² | - |
| 1788129415 | 44° F | 99% | 759.7 mmHg | 0 in | - | 0 W/m² | - |
| 1788129110 | 45° F | 99% | 759.5 mmHg | 0 in | - | 0 W/m² | - |
| 1788128805 | 45° F | 99% | 759.5 mmHg | 0 in | - | 1 W/m² | - |
| 1788128500 | 45° F | 99% | 759.4 mmHg | 0 in | - | 2 W/m² | - |
| 1788128196 | 46° F | 99% | 759.3 mmHg | 0 in | - | 5 W/m² | - |
| 1788127891 | 46° F | 99% | 759.4 mmHg | 0 in | - | 9 W/m² | - |
| 1788127587 | 46° F | 99% | 759.2 mmHg | 0 in | - | 16 W/m² | - |
| 1788127286 | 46° F | 99% | 759.1 mmHg | 0 in | - | 19 W/m² | - |
| 1788126985 | 46° F | 99% | 759.1 mmHg | 0 in | - | 24 W/m² | - |
| 1788126680 | 46° F | 99% | 759 mmHg | 0 in | - | 28 W/m² | - |
* Rain latest hour (hover to see other rain measurements)
** Current wind speed in m/s (hover to see current wind gust speed)